Location: Eastlake (historical)
(39.0077°N, 122.6678°W)
Time: 05:31:09
(UTC+00:00)

USA 238 - Pass Details

Date: 25 November 2020
Orbit: 996 x 1216 km, 63.4° (Epoch: 22 January)

Event Time Altitude Azimuth Distance (km) Brightness Sun altitude
Exits shadow 12:58:41 31° 326° (NW) 1,922 4.7 -24.2°
Maximum altitude 13:02:38 88° 241° (WSW) 1,188 3.8 -23.4°
Drops below altitude 10° 13:10:15 10° 150° (SSE) 3,144 6.7 -22.0°
Sets 13:13:01 0° 150° (SSE) 4,114 7.3 -21.4°
